IRIDIUM 130 (43073 NORAD) Tracking and Keplerian Element Data

This shows tracking and keplerian element data for the satellite.

Feedback or suggestion? Click here.




ElementValue
Catalog43073
NameIRIDIUM 130
Epoch Orbit41845
Epoch Day354.15725983
Epoch Year2025
RAAN37.089
Inclination86.397
Eccentricity0.0002493
Argument of Perigee98.0061
Mean Anonmoly262.1418
Mean Motion14.34218376
Decay Rate7.3E-07
L11 43073U 17083D 25354.15725983 .00000073 00000+0 18904-4 0 9990
L22 43073 86.3970 37.0890 0002493 98.0061 262.1418 14.34218376418456



Live tracking and technical data element details for IRIDIUM 130 (NORAD 43073). IRIDIUM 130 can be tracked NOW for your location showing map with azimuth and elevation plus other details from your city location.







IsCatalogInMostPopularTable: catalog: 43073, numindb: 742
Update: records affected: 1



GetName: 43073 IRIDIUM 130

Hit Count: updated at: Tue, 20 Jan 2026 19:23:31 GMT